sat.trackr.live / text

‹ back to catalog

STARLINK-36461

NORAD 67316 · 2026-002M

PAYLOAD ACTIVE UNKNOWN

§ Identity

Operator
Country
US
Launch date
2026-01-04
Launch site
AFETR
Launch vehicle
Mass (kg)
RCS (m²)

Purposes: comms

External: N2YO · Heavens-Above · Gunter

§ Orbital elements

Epoch: 2026-05-25T00:08:17.035872Z

Period
94.27 min
Inclination
43.0010°
Eccentricity
0.0001075
Mean motion
15.27583399 rev/d
Perigee alt
482.3 km
Apogee alt
483.8 km
Semi-major
6,861.2 km
B*
4.5344e-4
RAAN
253.9981°
Arg perigee
284.4637°
Mean anomaly
75.6095°
Rev number
2,291

§ Raw data

STARLINK-364611 67316U 26002M   26145.00575273  .00012238  00000+0  45344-3 0  99982 67316  43.0010 253.9981 0001075 284.4637  75.6095 15.27583399 22915

JSON: /api/v1/satellites/67316 · /tle

For live sub-satellite position, see the globe view (requires WebGL).

§ Visibility from observer

Set your observer location to see the next 7 days of passes ≥ 10°. The values pass through the URL so the page stays shareable.

No JS? Fill the form by hand. The geolocation button needs JavaScript.